Flag for U.S.A. Weather past 2 weeks in Davenport, Iowa, U.S.A.

Now
64 °F

Clear.


Feels Like: 64 °F
Forecast: 58 / 79 °F
Wind: 8 mph from South

Location: Davenport Municipal Airport

Current Time: Jul 24, 2014 at 11:41:43 PM

Latest Report: Jul 24, 2014 at 10:52 PM


Visibility: 10 mi

Pressure: 30.00 "Hg

Humidity: 75%

Dew point: 56 °F

Location of DavenportLocation

Historic Weather in Davenport — Graph

°F

Davenport temperature yesterday

Maximum temperature yesterday: 79 °F (at 4:52 PM)
Minimum temperature yesterday: 62 °F (at 10:52 PM)
Average temperature yesterday: 72 °F

Past Weeks' High & Low Weather Summary

 TemperatureHumidityPressure
High86 °F (Jul 22, 6:52 PM)97% (Jul 13, 2:52 AM)30.19 "Hg (Jul 13, 2:52 AM)
Low49 °F (Jul 16, 4:52 AM)42% (Jul 24, 4:52 PM)29.85 "Hg (Jul 12, 7:52 PM)
Average70 °F73%30.04 "Hg
* Reported Jul 9 10:52 PM — Jul 24 10:52 PM, Davenport, Weather by CustomWeather, © 2014

Note: Actual official high and low records may vary slightly from our data, if they occured in-between our weather recording intervals... More about our weather records

Advertising

Davenport weather history for previous 24 hours

 ConditionsComfort  
Time TempWeatherWind HumidityBarometerVisibility
10:52 PM
Jul 24
64 °FClear.8 mph75%30.00 "Hg10 mi
9:52 PM67 °FClear.7 mph68%30.00 "Hg10 mi
8:52 PM68 °FSunny.7 mph70%30.02 "Hg10 mi
7:52 PM69 °FSunny.6 mph70%30.07 "Hg10 mi
6:52 PM73 °FSunny.5 mph55%30.07 "Hg10 mi
5:52 PM75 °FPartly sunny.7 mph52%30.08 "Hg10 mi
4:52 PM78 °FScattered clouds.3 mph42%30.09 "Hg10 mi
3:52 PM75 °FPassing clouds.No wind48%30.09 "Hg10 mi
2:52 PM76 °FPassing clouds.5 mph47%30.10 "Hg10 mi
1:52 PM78 °FSunny.7 mph45%30.13 "Hg10 mi
12:52 PM75 °FSunny.No wind47%30.16 "Hg10 mi
11:52 AM75 °FSunny.8 mph50%30.16 "Hg10 mi
10:52 AM72 °FSunny.7 mph52%30.19 "Hg10 mi
9:52 AM70 °FSunny.8 mph53%30.17 "Hg10 mi
8:52 AM66 °FSunny.7 mph63%30.18 "Hg10 mi
7:52 AM63 °FSunny.8 mph75%30.18 "Hg10 mi
6:52 AM57 °FSunny.3 mph87%30.18 "Hg10 mi
5:52 AM54 °FClear.3 mph93%30.17 "Hg10 mi
4:52 AM55 °FClear.No wind90%30.17 "Hg10 mi
3:52 AM57 °FClear.No wind87%30.16 "Hg10 mi
2:52 AM59 °FClear.5 mph87%30.15 "Hg10 mi
1:52 AM62 °FClear.9 mph80%30.16 "Hg10 mi
12:52 AM64 °FPassing clouds.12 mph78%30.15 "Hg10 mi
11:52 PM
Jul 23
62 °FPassing clouds.No wind86%30.14 "Hg10 mi
Weather by CustomWeather, © 2014

See weather overviewHow to use our weather pages